WGS 10 (USA 291)

Last updated on July 6, 2021, 3:31 p.m. UTC

1 44071U 19014A   21186.88544734  .00000056  00000-0  00000-0 0  9993
2 44071   0.0158  20.7509 0000124 255.1426  27.2796  1.00268549  8508
UTC
Height (km)
Latitude
Longitude
Inclination
Orbital Period
UTC large
Height (km)
Speed (km/s)
/
Latitude / Longitude
Inclination (degrees)
Orbital Period (minutes)
Azimuth
Elevation
Range (km)
Doppler Factor
iOS Compass Heading
iOS Angle

Next 30 passes for location: Hong Kong

Rise time Rise Azimuth (degrees) Set time Set Azimuth (degrees) Duration Max altitude (degrees)

No matching passes for this satellites